Weather History for KGUY - December, 2013

Change the Weather History Date:

Tuesday, December 31, 2013

  Actual Average Record
Temperature  
Mean Temperature 42 °F 34 °F  
Max Temperature 58 °F 47 °F 67 °F (2005)
Min Temperature 25 °F 21 °F 3 °F (2010)
Degree Days  
Heating Degree Days 23 31  
Month to date heating degree days 960 925  
Since 1 July heating degree days 1846 1817  
Cooling Degree Days 0 0  
Month to date cooling degree days 0 0  
Year to date cooling degree days 1846 1482  
Moisture  
Dew Point 20 °F    
Average Humidity 49    
Maximum Humidity 75    
Minimum Humidity 23    
Precipitation  
Precipitation 0.00 in 0.02 in 0.26 in (2012)
Month to date precipitation 0.31 0.64  
Year to date precipitation 15.31 19.30  
Snow  
Snow 0.00 in - - ()
Month to date snowfall 3.5  
Since 1 July snowfall 7.2  
Snow Depth 0.00 in    
Sea Level Pressure  
Sea Level Pressure 30.08 in    
Wind  
Wind Speed 13 mph (SW)    
Max Wind Speed 31 mph    
Max Gust Speed 38 mph    
Visibility 10 miles    
Events      
T = Trace of Precipitation, MM = Missing Value Source: NWS Daily Summary

Daily Weather History Graph

Daily Weather History Graph

Search for Another Location

Airport or City:

Trip Planner

Search our weather history database for the weather conditions in past years. The results will help you decide how hot, cold, wet, or windy it might be!

Date:

Astronomy

Dec. 31, 2013 Rise Set
Actual Time 7:58 AM CST 5:40 PM CST
Civil Twilight 7:29 AM CST 6:09 PM CST
Nautical Twilight 6:57 AM CST 6:41 PM CST
Astronomical Twilight 6:25 AM CST 7:12 PM CST
Moon 6:54 AM CST (12/31) 5:17 PM CST (12/31)
Length of Visible Light 10h 39m
Length of Day
9h 41m
Waning Crescent, 1% of the Moon is Illuminated
Dec 31
Waning Crescent
Jan 1
New
Jan 7
First Quarter
Jan 15
Full
Jan 23
Last Quarter

Hourly Weather History & Observations

Time (CST) Temp. Windchill Dew Point Humidity Pressure Visibility Wind Dir Wind Speed Gust Speed Precip Events Conditions
12:53 AM 27.0 °F 20.5 °F 19.0 °F 72% 30.30 in 10.0 mi SW 5.8 mph - N/A   Clear
1:53 AM 28.9 °F 18.6 °F 19.9 °F 69% 30.26 in 10.0 mi SW 12.7 mph - N/A   Clear
2:53 AM 28.9 °F 19.8 °F 19.9 °F 69% 30.24 in 10.0 mi SSW 10.4 mph - N/A   Clear
3:53 AM 30.0 °F 20.5 °F 19.9 °F 66% 30.23 in 10.0 mi SW 11.5 mph - N/A   Clear
4:53 AM 28.9 °F 19.2 °F 19.9 °F 69% 30.21 in 10.0 mi SSW 11.5 mph - N/A   Clear
5:53 AM 28.9 °F 18.6 °F 19.9 °F 69% 30.19 in 10.0 mi SSW 12.7 mph - N/A   Clear
6:53 AM 30.0 °F 19.5 °F 19.9 °F 66% 30.19 in 10.0 mi SSW 13.8 mph - N/A   Clear
7:53 AM 30.9 °F 19.4 °F 19.9 °F 64% 30.18 in 10.0 mi SSW 17.3 mph - N/A   Clear
8:53 AM 34.0 °F 23.0 °F 19.9 °F 56% 30.18 in 10.0 mi SSW 18.4 mph - N/A   Clear
9:53 AM 43.0 °F 34.0 °F 19.9 °F 40% 30.14 in 10.0 mi SSW 21.9 mph 28.8 mph N/A   Clear
10:53 AM 46.9 °F - 19.0 °F 33% 30.13 in 10.0 mi SW 26.5 mph 34.5 mph N/A   Clear
11:53 AM 51.1 °F - 19.9 °F 29% 30.08 in 10.0 mi SW 23.0 mph 31.1 mph N/A   Clear
12:53 PM 54.0 °F - 21.0 °F 28% 30.02 in 10.0 mi SW 17.3 mph 27.6 mph N/A   Clear
1:53 PM 55.9 °F - 19.9 °F 25% 29.97 in 10.0 mi SW 20.7 mph - N/A   Clear
2:53 PM 57.0 °F - 19.9 °F 24% 29.95 in 10.0 mi SW 16.1 mph - N/A   Clear
3:53 PM 57.9 °F - 19.9 °F 23% 29.94 in 10.0 mi SSW 12.7 mph - N/A   Clear
4:53 PM 55.0 °F - 21.0 °F 27% 29.95 in 10.0 mi SW 9.2 mph - N/A   Clear
5:53 PM 45.0 °F 40.6 °F 21.0 °F 39% 29.97 in 10.0 mi SSW 8.1 mph - N/A   Clear
6:53 PM 41.0 °F 35.8 °F 19.9 °F 43% 29.97 in 10.0 mi SSW 8.1 mph - N/A   Clear
7:53 PM 36.0 °F 30.3 °F 19.0 °F 50% 29.99 in 10.0 mi SW 6.9 mph - N/A   Clear
8:53 PM 36.0 °F 32.1 °F 19.9 °F 52% 29.97 in 10.0 mi WSW 4.6 mph - N/A   Clear
9:53 PM 32.0 °F 27.5 °F 19.9 °F 61% 29.95 in 10.0 mi NNW 4.6 mph - N/A   Clear
10:53 PM 28.9 °F 25.2 °F 19.0 °F 67% 29.95 in 10.0 mi Variable 3.5 mph - N/A   Clear
11:53 PM 30.0 °F 21.1 °F 21.0 °F 69% 29.93 in 10.0 mi NW 10.4 mph - N/A   Clear